CZ-6A DEB

Satellite information

Favourite Embed

Satellite Type and Status

DEBRISIN ORBIT

Key statistics

Satellite CZ-6A DEB at a glance.

Uptime

495

Days in orbit

Revolutions

≈ 14.3

Per day

Orbit

LEO

Low Earth Orbit

Inclination

88.5

Latest

Satellite identification and parameters

Extended collection of information and parameters for CZ-6A DEB.

Object identification

Identified? True

Debris? True

Object name: CZ-6A DEB

International designator: 2024-140RC

Object number (NORAD): 61158

Object ID (CCSDS): 61158

Country: PEOPLES REPUBLIC OF CHINA (PRC)

Current information (Y/N): Y

RCS size: SMALL

Orbital parameters

Period: 100.983 minutes

Inclination: 88.4965 deg

SMA: 7183.326 km

Apoapsis: 868.092 km

Periapsis: 742.29 km

RAAN: 266.2705 deg

Eccentricy: 0.00875659

Argument of periapsis: 356.2153 deg

Mean anomaly: 3.8366 deg

Mean motion: 14.25983163 rev/day

Mean motion (dot): 0.00006603 rev/day2

B* drag term: 0.0026529514 1/REarth

Two-line elements (TLE)

Creation date: Dec. 12, 2025, 10:14 a.m.

Reference frame: TEME

Reference center: EARTH

Epoch: Dec. 12, 2025, 5:59 a.m. UTC

TLE line 0: 0 CZ-6A DEB

TLE line 1: 1 61158U 24140RC 25346.24991845 .00006603 00000-0 26530-2 0 9997

TLE line 2: 2 61158 88.4965 266.2705 0087566 356.2153 3.8366 14.25983163 67953

Live tracking on map

Real-time ground track for satellite CZ-6A DEB.

In-orbit conjunctions

A list of the most updated potential collisions computed for object CZ-6A DEB.

Target Orbit TCA Probability of collision Miss distance Type
COSMOS 836 LEO 2025-09-18 10:15:54 0.0004641116 154.0 (m) PAYLOAD
CZ-6A DEB SSO 2025-06-30 07:38:19 0.000254697 353.0 (m) DEBRIS
CZ-6A DEB LEO 2025-01-15 06:08:11 0.0001267524 493.0 (m) DEBRIS
COSMOS 2251 DEB LEO 2024-12-19 05:48:54 0.0001550887 717.0 (m) DEBRIS
METEOR 1-17 LEO 2024-11-27 18:30:35 0.0001810665 272.0 (m) PAYLOAD

Associated space launch

18 Low Earth Orbit communication satellites with Ku, Q and V band payloads for the G60 constellation operated by Shanghai Spacecom Satellite Technology (SSST) with funding backed by the Shanghai local government. Initial constellation will consist of 1296 satellites by 2027 with long term plans to expand it to 12000 satellites.

CZ-6A DEB was lifted into orbit during the mission ‘Long March 6A | G60 Polar Group 01’, on board a Long March 6A space rocket.

The launch took place on Aug. 6, 2024, 6:42 a.m. from Launch Complex 9A.

For more information about the launch, click the button.

Launch to space Long March 6A | G60 Polar Group 01
Long March 6A | G60 Polar Group 01

Agency: N/A

Status: Launch Successful

Launch date: Aug. 6, 2024, 6:42 a.m. UTC

Rocket: Long March 6A

Launch pad: Launch Complex 9A

Location: Taiyuan Satellite Launch Center, People's Republic of China

...

Latest news about this satellite

News about space launch
Brightness of first Chinese broadband constellation satellites alarms astronomers

The first satellites of a Chinese broadband constellation are significantly brighter than those of Western systems, posing a new challenge for astronomers.

News about space launch
Chinese rocket stage breaks up into cloud of more than 700 pieces of space debris

HELSINKI — A Chinese Long March 6A rocket’s upper stage has fragmented into a cloud of over 700 pieces of space debris, adding to concerns about long-term orbital safety. China […]

News about space launch
China's Thousand Sails Megaconstellation Kicks Off with Dangerous Debris Field

China's Thousand Sails Megaconstellation Kicks Off with Dangerous Debris Field


Newsletter sign-up

Weekly statistics, charts and insights to help you stay on top of the space industry.